Location: Hawks Ness
(60.2333°N, 1.1667°W)
Time: 23:56:56
(UTC+00:00)

Cosmos 1726 - Pass Details

Date: 03 February 2020
Orbit: 482 x 500 km, 82.5° (Epoch: 21 February)

Event Time Altitude Azimuth Distance (km) Brightness Sun altitude
Exits shadow 04:38:38 15° 12° (NNE) 1,380 4.6 -26.7°
Drops below altitude 10° 04:39:22 10° 13° (NNE) 1,681 5.1 -26.6°
Sets 04:41:28 0° 14° (NNE) 2,567 6.1 -26.4°
